Wind_Speed
3 8 8 10 9 8 10 10 15 16 16 17 16 18 13 7 3 7 12 13 12 11 8 7 6 5 3 2 1 2 3 4 5 7 8 10 11 11 12 12 12 12 12 12 13 13 14 14 14
5 8 11 13 13 6 15 15 14 15 12 11 15 14 11 11 6 4 9 10 10 9 9 8 6 5 4 3 2 3 3 5 6 8 9 11 12 14 14 15 16 17 17 18 18 19 19 19 19
7 5 14 11 9 10 14 17 18 12 10 8 10 13 12 10 8 6 1 5 8 9 10 10 7 7 6 5 4 4 5 6 7 9 11 13 15 16 17 18 19 20 21 22 22 23 23 24 23
4 5 10 9 10 10 12 14 15 14 13 15 11 7 6 8 8 6 6 5 7 10 10 9 8 7 7 6 5 6 7 8 9 11 13 15 17 18 19 20 21 22 23 23 24 25 26 26 25
5 9 15 9 5 10 10 11 12 11 15 19 14 11 7 4 4 5 4 5 6 7 9 9 9 8 9 8 8 9 10 11 12 14 15 17 19 20 21 22 23 23 23 23 23 24 24 24 23
8 8 11 9 5 7 10 13 14 9 12 16 14 10 6 5 3 5 4 4 6 7 8 7 8 9 10 10 10 11 12 12 14 15 17 18 19 19 19 19 20 20 20 20 21 22 22 22 22
9 13 7 7 8 6 5 15 14 11 13 12 9 11 9 5 2 4 3 6 8 7 7 9 10 11 12 12 12 12 12 12 14 14 15 15 16 16 17 18 18 19 20 20 20 20 19 18 18
11 9 8 5 14 7 5 12 7 9 16 15 14 12 12 10 6 3 3 4 7 8 11 11 12 12 12 11 11 10 10 11 13 14 15 16 17 18 19 21 20 19 16 14 15 16 15 16 18
9 6 9 7 7 6 12 13 11 11 15 18 19 15 13 13 9 8 5 6 7 9 10 12 13 14 13 12 12 12 12 13 13 13 13 14 14 15 16 15 14 16 17 16 15 15 15 16 18
8 5 7 9 7 5 5 11 8 6 11 17 18 14 11 12 10 11 11 9 9 11 13 14 13 12 11 10 9 8 8 8 8 8 9 11 12 14 14 15 14 15 14 14 16 19 19 19 20
11 10 13 11 10 8 5 7 10 12 6 12 18 13 11 11 11 11 11 10 9 9 10 11 11 10 8 6 4 3 4 6 6 7 8 8 9 11 12 12 13 15 18 19 20 22 22 22 22
21 18 12 10 17 19 15 10 14 11 13 9 17 16 12 10 9 9 9 7 6 7 8 8 8 7 5 2 2 1 3 4 4 5 7 9 9 11 12 13 17 19 20 23 24 22 20 18 18
25 23 16 12 17 25 20 13 15 16 21 14 17 14 11 13 11 9 9 7 4 5 5 5 4 3 1 2 3 2 5 7 8 7 8 9 10 11 13 15 17 18 19 19 19 19 19 19 19
31 24 19 14 15 22 17 15 17 14 17 19 11 11 19 18 13 11 7 6 6 7 5 4 2 2 4 5 5 6 10 12 9 7 9 9 10 12 13 14 15 16 16 14 15 18 21 20 18
31 29 24 18 16 15 18 22 18 14 15 14 9 12 11 15 20 16 15 13 9 6 6 6 6 6 7 8 9 12 13 12 10 9 9 10 12 15 16 15 16 15 16 16 18 20 18 17 17
30 35 31 26 24 25 28 26 22 16 18 13 15 10 8 6 11 19 12 13 12 10 7 8 9 8 9 12 13 14 14 13 11 10 11 14 18 22 21 20 20 19 19 19 20 20 16 16 17
31 32 35 30 24 27 27 25 26 20 16 13 18 12 16 9 12 7 10 10 13 10 10 6 7 9 10 13 13 15 15 16 14 12 16 19 20 18 20 21 20 20 20 17 17 18 17 17 18
29 32 30 29 31 33 32 30 27 22 20 15 18 13 14 16 7 6 11 5 9 12 7 2 5 4 6 11 12 14 15 13 12 14 15 13 13 13 17 17 15 13 14 15 17 18 19 20 21
30 27 27 27 27 32 29 30 31 21 18 15 20 17 20 15 14 12 15 9 6 13 12 13 7 5 4 7 9 11 15 13 12 12 11 9 13 17 17 18 13 11 14 13 15 17 20 21 22
27 28 26 30 30 34 34 35 32 25 22 18 26 24 23 21 23 19 21 9 8 14 13 14 15 14 11 16 19 21 19 16 13 14 11 12 18 17 18 17 14 13 12 15 16 17 20 22 23
28 28 31 36 38 39 39 38 36 27 28 27 27 26 27 25 21 23 18 15 15 9 9 13 17 21 19 21 27 27 28 26 16 19 16 15 20 19 18 18 15 15 15 17 19 21 22 27 28
27 28 32 36 39 43 40 36 33 34 27 29 32 26 20 24 15 11 15 18 17 7 10 17 22 22 26 28 34 34 33 27 23 28 22 18 20 17 18 18 17 18 18 21 24 26 29 27 30
28 31 33 36 40 42 41 40 34 34 34 33 26 29 16 16 16 17 17 13 11 17 14 19 24 23 28 26 27 23 16 24 32 31 27 24 21 20 19 20 22 22 22 24 27 28 32 32 33
28 30 32 36 40 43 40 39 38 41 36 35 34 29 27 23 23 23 22 17 24 22 19 19 23 22 31 29 25 19 24 33 39 35 29 28 23 23 24 24 26 24 25 26 28 30 34 37 36
30 29 29 34 37 39 37 40 40 39 43 42 41 36 33 30 30 30 32 29 27 25 22 23 22 24 29 32 28 26 30 35 34 29 33 30 34 22 26 26 29 26 26 29 30 33 36 37 37
26 29 31 33 32 30 30 35 31 31 42 45 46 48 46 40 33 38 41 38 36 32 26 25 25 26 28 32 37 33 35 37 26 28 35 35 24 25 27 27 28 28 29 30 32 35 36 35 37
27 31 29 33 33 34 29 30 26 26 31 39 52 57 55 50 45 43 38 37 36 38 37 26 25 24 28 32 35 32 33 26 25 29 32 34 22 25 27 28 30 31 32 33 34 36 36 35 37
32 31 32 32 35 34 34 29 28 21 23 30 34 43 46 45 47 43 43 37 34 35 28 28 27 27 31 33 35 28 26 25 26 29 30 33 24 25 29 31 31 33 35 37 37 38 37 36 36
33 35 35 37 37 40 40 34 28 27 18 23 23 28 34 35 36 35 37 33 31 32 32 31 31 32 35 30 30 28 25 24 26 28 31 29 27 27 30 32 33 35 37 39 41 40 39 39 37
27 30 38 43 43 44 45 43 31 27 28 26 29 31 33 26 28 36 36 33 35 36 38 39 41 39 30 31 21 15 15 20 25 27 29 26 27 28 30 33 34 35 39 41 42 41 38 39 40
Wind_Direction
133 181 177 178 175 135 110 91 80 64 28 16 54 59 46 45 87 146 165 169 169 169 173 173 158 154 157 117 72 3 0 354 347 338 333 331 328 325 324 322 319 316 312 307 303 300 299 298 300
178 185 193 184 179 134 85 89 75 63 64 19 16 33 49 47 50 154 175 174 175 178 197 205 189 196 207 209 242 286 307 318 323 322 319 316 313 312 311 310 309 308 306 305 303 301 299 299 299
160 161 175 154 141 124 92 87 78 73 67 56 21 20 13 27 34 13 302 202 196 201 211 219 216 222 229 237 258 278 289 296 303 306 306 304 303 302 303 304 304 304 302 300 298 297 296 296 296
137 232 150 157 160 125 94 97 107 103 88 68 37 5 7 13 20 359 332 290 245 232 230 236 242 248 249 252 264 272 278 283 286 289 291 292 294 296 297 297 297 297 296 295 295 296 296 297 298
82 79 183 170 165 102 94 91 86 83 78 58 36 9 346 331 357 335 326 300 285 272 263 258 253 252 251 250 254 262 265 267 272 277 281 286 290 293 297 299 299 298 297 295 296 296 298 303 303
77 101 173 191 193 128 78 37 25 37 55 53 37 17 340 12 314 284 289 325 298 289 280 276 268 257 255 255 253 255 259 265 272 279 285 288 291 293 294 294 295 297 298 298 299 299 300 299 298
109 89 127 196 218 145 35 14 358 1 19 18 25 6 340 355 6 48 353 299 292 296 301 279 260 257 253 251 253 260 270 280 285 287 289 291 291 295 297 295 294 294 292 296 298 299 301 301 300
186 130 119 109 83 164 309 26 41 25 15 6 2 343 335 335 349 316 332 320 296 292 283 269 258 254 249 253 259 267 275 279 284 288 289 290 293 293 291 291 294 294 297 301 302 302 305 303 306
205 187 140 166 125 72 31 39 53 23 10 6 0 342 320 319 327 312 303 288 309 308 292 275 264 254 252 255 261 267 274 276 279 284 289 293 297 299 302 305 306 301 303 304 307 306 304 302 303
200 239 234 206 146 97 56 19 14 5 356 6 347 331 314 315 311 316 317 305 300 293 293 289 279 272 268 267 268 276 280 290 307 314 313 317 319 314 311 307 304 301 294 299 297 298 297 299 301
175 195 227 219 250 261 285 348 360 349 342 8 351 333 317 319 318 311 308 302 290 287 292 288 283 279 276 275 294 299 321 321 328 327 326 325 316 308 307 306 300 296 300 301 302 303 308 311 306
184 201 225 263 257 255 286 311 338 339 348 357 354 357 331 327 332 336 320 312 302 286 282 283 286 283 289 291 289 312 308 282 292 294 309 301 307 316 312 306 299 303 304 303 303 303 305 308 308
195 217 221 245 270 281 283 309 327 327 338 341 357 1 360 356 346 337 329 325 297 267 259 261 267 279 259 174 214 259 278 278 277 287 292 310 310 307 307 300 294 294 292 295 299 310 311 311 313
203 213 225 250 267 283 290 302 311 317 327 342 0 356 355 10 355 348 343 317 312 306 278 248 203 182 212 224 240 249 250 255 263 273 296 305 298 295 290 285 292 294 290 292 303 313 311 309 310
209 209 221 236 258 270 286 295 303 299 306 324 338 344 353 353 7 353 345 330 301 277 277 260 235 226 239 250 259 263 268 279 291 300 284 286 286 283 283 285 288 292 285 292 309 319 318 317 316
233 217 221 234 252 266 279 291 289 297 297 309 341 335 343 311 354 351 353 341 313 289 271 275 271 264 263 271 277 272 278 288 283 291 289 289 301 299 290 290 287 282 279 292 303 313 317 321 320
239 239 228 225 249 264 264 273 278 285 283 305 342 347 326 280 297 344 353 20 2 305 267 267 301 304 292 289 286 282 280 281 287 295 301 303 311 315 305 301 299 285 286 296 308 310 313 316 317
239 240 242 235 236 245 250 256 254 266 289 303 296 303 318 305 313 306 296 342 9 16 357 4 353 358 319 307 295 273 268 274 278 290 306 309 316 331 345 339 345 315 285 308 319 314 314 319 319
232 237 232 228 228 228 231 236 245 261 269 277 290 303 301 308 281 300 298 328 9 3 359 353 341 310 316 321 303 295 278 265 284 303 293 298 319 323 331 318 319 313 314 322 315 315 313 311 308
233 236 225 211 211 232 230 238 242 254 264 265 281 278 290 294 281 291 296 309 354 350 336 336 328 332 328 320 327 318 303 279 283 291 287 283 307 306 316 314 310 310 318 313 310 306 304 306 312
229 233 229 225 223 229 236 240 250 248 257 258 269 285 284 291 281 298 312 328 325 344 328 313 331 339 335 342 314 302 300 283 277 279 274 269 289 298 305 307 304 307 310 305 306 309 311 312 313
239 231 233 237 233 227 235 246 252 278 264 256 267 277 299 271 279 294 311 306 300 321 292 300 313 330 326 333 340 345 269 290 297 291 285 273 276 285 293 295 297 301 303 302 305 311 313 317 310
253 238 237 238 240 242 236 251 257 250 261 271 273 268 257 250 263 277 289 308 298 271 283 293 304 312 320 325 339 347 351 334 328 303 283 277 271 275 279 283 286 289 294 297 301 308 310 310 306
259 252 248 247 249 257 259 253 257 254 253 259 249 254 253 255 262 262 273 279 275 269 277 281 298 298 313 316 322 316 317 325 317 299 284 274 267 276 280 278 277 282 287 294 300 307 306 302 302
261 258 249 246 251 260 266 263 263 261 249 254 258 258 255 256 257 268 273 269 266 275 274 287 282 293 296 299 313 296 299 310 300 281 283 274 269 273 275 274 272 279 288 294 298 301 300 298 299
246 247 257 268 266 258 257 270 275 268 253 249 256 262 264 261 269 265 273 269 275 272 280 279 272 283 288 294 307 293 296 299 290 263 274 274 280 275 274 272 274 280 285 290 293 294 296 298 298
246 254 265 269 272 273 273 273 277 278 269 258 253 260 266 264 260 260 267 265 262 267 267 274 267 278 283 295 296 288 290 283 279 272 271 277 278 274 275 271 273 279 284 288 289 292 295 297 295
259 260 261 264 272 272 276 276 281 275 262 267 266 260 264 268 263 265 254 258 255 261 272 273 272 278 285 294 293 279 274 273 273 275 270 273 281 273 267 267 273 281 286 288 290 292 296 298 299
264 267 267 271 272 278 282 279 283 287 276 258 261 261 267 265 256 262 266 265 263 269 271 268 275 285 293 289 280 271 267 271 271 269 267 270 272 274 272 273 277 280 286 288 290 293 297 300 303
269 269 264 263 270 271 275 279 279 277 277 261 247 243 246 248 260 259 257 256 259 263 265 268 275 284 285 290 260 273 283 278 275 270 267 269 273 275 274 275 277 281 284 286 288 291 298 300 299
Height
5909 5909 5911 5910 5912 5910 5909 5909 5905 5905 5904 5904 5907 5908 5909 5910 5912 5914 5913 5913 5915 5916 5917 5918 5917 5918 5919 5919 5920 5920 5921 5921 5922 5923 5924 5924 5924 5924 5924 5923 5923 5922 5922 5921 5920 5919 5918 5917 5916
5909 5910 5911 5911 5912 5912 5913 5910 5909 5908 5908 5909 5908 5908 5910 5911 5913 5913 5914 5914 5915 5916 5917 5918 5918 5918 5919 5919 5920 5921 5921 5922 5923 5923 5924 5924 5924 5924 5924 5923 5923 5922 5921 5920 5919 5918 5916 5916 5915
5910 5910 5911 5912 5913 5915 5913 5910 5909 5911 5912 5911 5910 5910 5910 5910 5912 5913 5914 5914 5915 5916 5917 5918 5917 5918 5919 5920 5920 5921 5922 5922 5923 5923 5923 5923 5923 5923 5923 5922 5921 5920 5920 5919 5917 5916 5915 5914 5913
5912 5912 5914 5913 5913 5914 5914 5913 5913 5913 5913 5911 5912 5913 5912 5912 5912 5912 5913 5914 5915 5916 5916 5917 5917 5918 5919 5919 5920 5921 5921 5922 5922 5922 5922 5922 5922 5922 5921 5920 5919 5919 5918 5916 5915 5913 5912 5911 5911
5912 5911 5912 5913 5915 5916 5916 5916 5914 5914 5913 5912 5914 5914 5912 5911 5913 5913 5913 5913 5914 5914 5915 5915 5916 5916 5917 5918 5919 5919 5920 5921 5921 5921 5921 5921 5920 5920 5919 5918 5917 5915 5914 5913 5911 5910 5908 5908 5907
5914 5913 5913 5915 5917 5918 5918 5917 5915 5915 5914 5913 5914 5915 5914 5913 5913 5913 5913 5913 5913 5913 5914 5914 5914 5915 5916 5917 5917 5918 5918 5919 5919 5919 5920 5919 5918 5917 5915 5914 5913 5912 5911 5909 5908 5907 5906 5905 5904
5914 5914 5914 5916 5917 5918 5916 5915 5914 5914 5913 5914 5914 5915 5913 5913 5912 5911 5911 5912 5913 5913 5913 5912 5913 5913 5914 5915 5915 5916 5917 5917 5918 5918 5917 5916 5915 5914 5912 5910 5909 5908 5907 5906 5905 5903 5903 5901 5900
5913 5914 5915 5916 5915 5918 5917 5914 5914 5915 5914 5913 5914 5915 5911 5911 5910 5911 5911 5912 5912 5912 5911 5911 5912 5912 5913 5914 5914 5915 5916 5916 5916 5916 5915 5914 5912 5911 5909 5908 5907 5905 5904 5903 5901 5900 5900 5898 5897
5911 5913 5915 5916 5916 5916 5916 5916 5915 5914 5913 5912 5913 5914 5912 5909 5909 5908 5909 5910 5910 5910 5910 5911 5911 5911 5912 5913 5913 5914 5914 5914 5913 5913 5913 5911 5911 5910 5908 5907 5906 5904 5903 5902 5900 5899 5899 5897 5895
5912 5911 5913 5916 5914 5915 5915 5916 5917 5915 5914 5912 5914 5915 5913 5911 5909 5908 5907 5907 5908 5909 5910 5910 5911 5910 5911 5911 5911 5912 5912 5912 5913 5913 5912 5911 5911 5909 5908 5906 5906 5904 5901 5899 5899 5898 5898 5895 5892
5912 5912 5912 5913 5913 5913 5914 5914 5915 5915 5915 5915 5916 5914 5913 5911 5909 5908 5907 5907 5908 5908 5909 5909 5909 5908 5909 5911 5912 5912 5912 5912 5912 5911 5910 5909 5908 5906 5905 5904 5902 5901 5900 5899 5897 5895 5894 5892 5889
5909 5909 5908 5909 5910 5911 5911 5912 5913 5913 5915 5915 5916 5914 5912 5910 5908 5908 5907 5906 5906 5907 5907 5907 5907 5909 5910 5911 5911 5911 5911 5910 5909 5908 5906 5905 5904 5904 5903 5902 5900 5899 5897 5896 5895 5892 5890 5888 5887
5908 5905 5909 5909 5908 5907 5908 5909 5910 5910 5910 5913 5914 5913 5912 5910 5908 5907 5906 5906 5905 5905 5905 5905 5907 5908 5909 5911 5910 5909 5909 5908 5907 5907 5905 5903 5902 5902 5901 5899 5897 5897 5895 5892 5891 5889 5888 5885 5883
5906 5907 5908 5909 5908 5906 5904 5905 5907 5908 5910 5912 5912 5913 5912 5911 5908 5907 5905 5905 5904 5905 5905 5906 5907 5908 5908 5909 5908 5907 5907 5906 5905 5904 5903 5902 5901 5899 5897 5895 5894 5892 5890 5888 5887 5885 5883 5881 5880
5905 5906 5905 5907 5907 5905 5902 5901 5906 5906 5909 5911 5909 5911 5912 5912 5909 5906 5903 5901 5903 5905 5906 5906 5907 5908 5908 5907 5906 5906 5904 5903 5903 5903 5901 5899 5898 5896 5893 5890 5889 5886 5885 5882 5880 5878 5878 5876 5874
5902 5904 5904 5905 5907 5905 5903 5902 5903 5904 5906 5908 5909 5909 5910 5912 5911 5909 5905 5902 5904 5905 5904 5904 5906 5907 5907 5907 5906 5903 5901 5901 5900 5900 5899 5898 5895 5893 5888 5885 5883 5880 5879 5879 5878 5876 5875 5874 5872
5898 5900 5902 5905 5904 5902 5901 5900 5901 5903 5905 5906 5908 5909 5910 5908 5910 5912 5910 5909 5908 5907 5904 5902 5904 5905 5905 5904 5904 5902 5901 5899 5898 5897 5895 5892 5889 5887 5883 5880 5877 5876 5876 5875 5874 5873 5871 5870 5868
5894 5895 5898 5901 5902 5897 5896 5897 5898 5900 5902 5905 5907 5907 5908 5909 5907 5910 5911 5910 5910 5907 5906 5903 5903 5902 5902 5903 5904 5903 5901 5899 5897 5894 5891 5888 5886 5883 5879 5876 5873 5872 5873 5873 5871 5868 5867 5865 5863
5888 5890 5893 5896 5896 5893 5893 5892 5894 5897 5899 5901 5903 5903 5904 5906 5904 5905 5906 5906 5905 5905 5903 5901 5901 5901 5900 5898 5898 5897 5897 5894 5891 5889 5885 5885 5884 5882 5878 5875 5872 5871 5870 5870 5869 5866 5864 5863 5861
5884 5885 5888 5890 5891 5887 5889 5887 5889 5890 5894 5895 5898 5898 5899 5900 5901 5900 5901 5900 5899 5900 5900 5897 5896 5895 5895 5894 5894 5893 5891 5886 5884 5883 5881 5879 5879 5877 5875 5872 5869 5868 5867 5867 5865 5862 5859 5857 5854
5878 5880 5882 5883 5883 5882 5883 5884 5882 5886 5889 5888 5891 5892 5893 5894 5895 5895 5894 5894 5896 5895 5895 5893 5892 5892 5891 5889 5888 5886 5884 5885 5880 5877 5876 5875 5875 5873 5873 5869 5866 5865 5865 5863 5862 5859 5856 5853 5849
5874 5875 5876 5877 5878 5878 5879 5880 5882 5877 5882 5883 5887 5886 5886 5887 5889 5889 5889 5889 5889 5891 5891 5890 5889 5888 5886 5884 5882 5873 5874 5879 5881 5876 5872 5871 5870 5869 5868 5866 5863 5862 5861 5859 5858 5855 5852 5848 5845
5872 5869 5870 5871 5871 5871 5876 5876 5877 5879 5878 5878 5879 5881 5881 5882 5882 5883 5882 5884 5883 5884 5884 5886 5886 5884 5883 5882 5879 5877 5874 5877 5876 5873 5869 5868 5867 5865 5864 5863 5859 5858 5857 5855 5853 5850 5848 5843 5841
5868 5867 5867 5867 5867 5865 5869 5868 5870 5873 5875 5875 5876 5873 5871 5871 5873 5875 5876 5877 5875 5877 5878 5879 5880 5881 5879 5878 5877 5876 5873 5870 5870 5868 5865 5863 5860 5859 5859 5857 5854 5852 5852 5850 5847 5845 5843 5838 5835
5863 5864 5862 5861 5862 5861 5862 5860 5861 5864 5868 5868 5867 5868 5868 5867 5867 5868 5867 5868 5868 5869 5872 5873 5874 5876 5874 5872 5872 5871 5868 5866 5862 5860 5859 5857 5847 5851 5852 5852 5849 5847 5846 5844 5843 5841 5839 5836 5831
5858 5859 5858 5856 5856 5858 5856 5853 5856 5857 5858 5860 5859 5858 5860 5861 5861 5860 5859 5859 5860 5861 5864 5866 5866 5869 5867 5865 5864 5862 5860 5858 5856 5854 5853 5849 5842 5845 5846 5846 5844 5843 5840 5838 5837 5835 5833 5830 5826
5855 5854 5855 5850 5850 5848 5851 5850 5850 5850 5849 5850 5851 5850 5850 5852 5853 5852 5853 5851 5853 5855 5856 5857 5857 5860 5859 5858 5856 5855 5853 5852 5849 5848 5847 5840 5841 5840 5841 5841 5839 5837 5834 5832 5831 5829 5827 5824 5819
5846 5849 5848 5846 5841 5840 5841 5841 5842 5843 5843 5842 5841 5840 5841 5841 5842 5842 5843 5843 5843 5845 5845 5846 5848 5850 5850 5850 5848 5847 5845 5843 5843 5842 5841 5835 5835 5836 5837 5836 5833 5830 5828 5825 5824 5821 5819 5817 5812
5842 5840 5840 5838 5836 5832 5830 5834 5838 5837 5837 5834 5835 5834 5833 5833 5832 5833 5834 5834 5835 5835 5836 5837 5838 5841 5842 5840 5838 5838 5836 5835 5836 5837 5836 5833 5831 5831 5831 5829 5826 5823 5820 5818 5816 5813 5811 5808 5804
5836 5835 5833 5829 5828 5825 5823 5823 5830 5830 5828 5827 5825 5823 5821 5821 5823 5823 5823 5825 5826 5828 5829 5831 5831 5831 5833 5832 5831 5830 5828 5830 5830 5830 5828 5825 5825 5824 5824 5822 5818 5815 5813 5810 5808 5805 5803 5799 5794